TimeCDT,TemperatureF,Dew PointF,Humidity,Sea Level PressureIn,VisibilityMPH,Wind Direction,Wind SpeedMPH,Gust SpeedMPH,PrecipitationIn,Events,Conditions,WindDirDegrees,DateUTC
12:53 AM,80.1,61.0,52,29.89,10.0,South,12.7,21.9,N/A,,Clear,180,2013-08-24 05:53:00
1:53 AM,78.1,62.1,58,29.90,10.0,South,10.4,18.4,N/A,,Clear,180,2013-08-24 06:53:00
2:53 AM,75.9,62.1,62,29.90,10.0,South,10.4,18.4,N/A,,Clear,180,2013-08-24 07:53:00
3:53 AM,73.9,63.0,68,29.90,10.0,South,11.5,19.6,N/A,,Clear,190,2013-08-24 08:53:00
4:53 AM,73.9,64.0,71,29.91,10.0,South,13.8,20.7,N/A,,Clear,190,2013-08-24 09:53:00
5:53 AM,73.0,64.9,76,29.91,10.0,South,11.5,19.6,N/A,,Clear,180,2013-08-24 10:53:00
6:53 AM,72.0,64.9,78,29.93,10.0,South,10.4,19.6,N/A,,Clear,180,2013-08-24 11:53:00
7:53 AM,73.0,64.9,76,29.94,10.0,South,12.7,-,N/A,,Clear,180,2013-08-24 12:53:00
8:53 AM,75.9,64.9,69,29.95,10.0,South,16.1,25.3,N/A,,Clear,190,2013-08-24 13:53:00
9:53 AM,81.0,64.9,58,29.95,10.0,South,15.0,21.9,N/A,,Clear,180,2013-08-24 14:53:00
10:53 AM,84.9,64.9,51,29.95,10.0,South,15.0,23.0,N/A,,Clear,180,2013-08-24 15:53:00
11:53 AM,90.0,64.9,43,29.95,10.0,South,13.8,20.7,N/A,,Clear,180,2013-08-24 16:53:00
12:53 PM,93.9,63.0,36,29.93,10.0,South,13.8,25.3,N/A,,Clear,190,2013-08-24 17:53:00
1:53 PM,95.0,60.1,31,29.91,10.0,South,20.7,28.8,N/A,,Clear,190,2013-08-24 18:53:00
2:53 PM,96.1,57.9,28,29.91,10.0,South,23.0,32.2,N/A,,Clear,180,2013-08-24 19:53:00
3:53 PM,96.1,59.0,29,29.90,10.0,South,21.9,26.5,N/A,,Clear,190,2013-08-24 20:53:00
4:53 PM,96.1,59.0,29,29.89,10.0,SSW,12.7,29.9,N/A,,Clear,200,2013-08-24 21:53:00
5:53 PM,95.0,61.0,32,29.88,10.0,South,17.3,28.8,N/A,,Partly Cloudy,170,2013-08-24 22:53:00
6:53 PM,93.0,61.0,34,29.89,10.0,South,18.4,28.8,N/A,,Clear,180,2013-08-24 23:53:00
7:53 PM,90.0,60.1,37,29.90,10.0,South,15.0,24.2,N/A,,Clear,170,2013-08-25 00:53:00
8:53 PM,86.0,61.0,43,29.92,10.0,SSE,11.5,-,N/A,,Clear,160,2013-08-25 01:53:00
9:53 PM,84.0,63.0,49,29.95,10.0,SSE,12.7,-,N/A,,Clear,160,2013-08-25 02:53:00
10:53 PM,82.9,63.0,51,29.95,10.0,South,15.0,23.0,N/A,,Clear,170,2013-08-25 03:53:00
11:53 PM,81.0,64.0,56,29.97,10.0,South,16.1,24.2,N/A,,Clear,170,2013-08-25 04:53:00